Location: Angwan Shehu
(11.2514°N, 7.4613°E)
Time: 06:00:17
(UTC+00:00)

SR - Pass Details

Date: 15 April 2021
Orbit: 573 x 882 km, 66.7° (Epoch: 12 May)

Event Time Altitude Azimuth Distance (km) Brightness Sun altitude
Rises 07:08:33 0° 209° (SSW) 3,070 ? 25.8°
Reaches altitude 10° 07:10:49 10° 213° (SSW) 2,201 ? 26.4°
Maximum altitude 07:15:47 57° 292° (WNW) 898 ? 27.6°
Drops below altitude 10° 07:21:11 10° 10° (N) 2,399 ? 28.9°
Sets 07:23:46 0° 14° (NNE) 3,371 ? 29.5°
